[[{"header":{"parameterUnit":"m.s-1","parameterCategory":1,"la1":30.2991,"la2":30.254,"lo1":-89.0895,"lo2":-89.0444,"dy":0.0017,"dx":0.0017,"nx":28,"ny":28,"refTime":"2023-09-23T21:00:00:Z","depth":0,"parameterNumber":2,"parameterNumberName":"U-component_of_WINDS"},"data":[0,0,0,0,0,0,0,0,0,0,0,0,0,0,0,0,0,0,0,0,0,0,0,0,0,0,0,0,0,0,0,0,0,0,0,0,0,0,0,0,0,0,0,0,0,0,0,0,0,0,0,0,0,0,0,0,0,0,-0.6688,-0.6688,0,-0.6735,-0.6735,-0.6736,-0.6748,-0.6747,-0.6747,-0.6747,-0.6794,-0.6795,-0.6797,0,0,0,0,0,0,0,0,0,0,0,0,0,-0.6608,-0.661,-0.6688,-0.6688,-0.6689,-0.6735,-0.6735,-0.6736,-0.6748,-0.6747,-0.6747,-0.6747,-0.6793,-0.6795,-0.6797,0,0,0,0,0,0,0,0,0,0,0,0,0,-0.6648,-0.661,-0.6688,-0.67,-0.6702,-0.6735,-0.6735,-0.6736,-0.6748,-0.6747,-0.6747,-0.6746,-0.6793,-0.6795,-0.6797,-0.682,0,0,-0.6804,-0.6805,0,0,0,0,0,0,0,0,-0.6646,-0.6651,-0.6698,-0.67,-0.6701,-0.6735,-0.6725,-0.6764,-0.6748,-0.673,-0.6747,-0.6746,-0.6774,-0.6778,-0.6788,-0.6823,-0.6825,-0.6804,-0.6806,-0.6807,-0.6807,0,0,0,0,0,0,0,-0.6643,-0.6649,-0.6706,-0.6699,-0.6701,-0.6704,-0.6709,-0.6732,-0.6754,-0.6732,-0.6733,-0.6738,-0.6775,-0.6786,-0.6789,-0.6825,-0.6804,-0.6806,-0.6808,-0.6809,-0.6883,-0.6883,0,0,0,0,0,0,-0.6638,-0.6646,-0.6705,-0.6708,-0.6672,-0.6706,-0.6711,-0.6725,-0.6754,-0.6758,-0.6738,-0.6739,-0.6782,-0.6787,-0.6791,-0.6821,-0.6807,-0.6809,-0.681,-0.6882,-0.6883,-0.6883,0,0,0,0,0,0,-0.6636,-0.6643,-0.6703,-0.6677,-0.6685,-0.6707,-0.6722,-0.6726,-0.6736,-0.6759,-0.6763,-0.6745,-0.6782,-0.6788,-0.6813,-0.6823,-0.681,-0.6812,-0.6881,-0.6882,-0.6883,-0.6881,0,0,0,0,0,0,-0.6634,-0.6642,-0.6651,-0.6678,-0.6687,-0.6725,-0.6723,-0.6727,-0.674,-0.6741,-0.6766,-0.677,-0.6782,-0.681,-0.6816,-0.6826,-0.6814,-0.6881,-0.6882,-0.6883,-0.688,-0.6882,-0.6883,0,0,0,0,0,-0.6631,-0.6648,-0.6652,-0.6659,-0.6698,-0.6725,-0.673,-0.6744,-0.6741,-0.675,-0.6765,-0.6769,-0.6821,-0.6812,-0.6819,-0.683,-0.688,-0.6882,-0.6883,-0.688,-0.6881,-0.6883,0,0,0,0,0,0,-0.6622,-0.6652,-0.6656,-0.6682,-0.6701,-0.6727,-0.6739,-0.6745,-0.6765,-0.6764,-0.678,-0.6785,-0.681,-0.6823,-0.6813,-0.6855,-0.685,-0.6853,-0.6846,-0.6848,-0.6849,-0.6846,-0.6816,0,0,0,0,0,-0.6623,-0.6643,-0.6668,-0.6688,-0.6698,-0.6717,-0.6729,-0.6738,-0.6758,-0.6766,-0.6783,-0.6802,-0.6822,-0.6836,-0.6856,-0.6882,-0.6888,-0.6893,-0.6894,-0.6895,-0.6897,-0.6913,-0.6916,-0.6888,-0.6888,-0.6888,0,0,-0.6625,-0.6644,-0.6655,-0.6687,-0.6703,-0.6723,-0.6723,-0.6744,-0.6759,-0.6769,-0.6795,-0.6808,-0.683,-0.6857,-0.6869,-0.6868,-0.6906,-0.6897,-0.6897,-0.6899,-0.6915,-0.6918,-0.692,-0.6889,-0.6889,-0.6888,0,0,-0.664,-0.6656,-0.6676,-0.6692,-0.6716,-0.6729,-0.6733,-0.6759,-0.6768,-0.6794,-0.6802,-0.682,-0.6855,-0.6871,-0.6884,-0.6906,-0.6911,-0.6912,-0.6919,-0.6934,-0.6937,-0.6939,-0.6948,-0.695,-0.6914,-0.6914,-0.6914,0,-0.664,-0.6671,-0.6685,-0.6706,-0.672,-0.673,-0.6751,-0.6765,-0.6794,-0.6804,-0.6802,-0.6847,-0.6863,-0.6894,-0.6899,-0.6909,-0.6915,-0.6909,-0.6935,-0.6937,-0.6939,-0.6948,-0.6951,-0.6914,-0.6914,-0.6914,-0.6914,0,-0.667,-0.6691,-0.6704,-0.6733,-0.6748,-0.6769,-0.6787,-0.6801,-0.6808,-0.6821,-0.6848,-0.6868,-0.6893,-0.6901,-0.6908,-0.6933,-0.6931,-0.6932,-0.6928,-0.6942,-0.695,-0.6954,-0.6914,-0.6914,-0.6914,-0.6914,0,0,-0.668,-0.6717,-0.6722,-0.6736,-0.6763,-0.678,-0.6801,-0.6826,-0.6838,-0.6858,-0.6877,-0.6907,-0.6908,-0.6923,-0.6932,-0.6945,-0.6963,-0.6944,-0.6945,-0.6948,-0.6993,-0.6993,-0.6997,-0.6966,-0.6967,-0.6968,-0.6992,0,-0.6699,-0.6738,-0.6752,-0.6784,-0.6804,-0.6814,-0.6833,-0.6852,-0.6865,-0.6885,-0.6899,-0.692,-0.692,-0.6929,-0.6942,-0.6958,-0.6972,-0.6956,-0.6984,-0.6985,-0.6979,-0.7001,-0.7001,-0.7022,-0.6995,-0.6995,-0.6996,0,-0.6726,-0.6748,-0.6782,-0.6808,-0.6817,-0.6834,-0.6858,-0.6876,-0.6899,-0.6907,-0.6924,-0.6933,-0.6956,-0.695,-0.6983,-0.6972,-0.6984,-0.6993,-0.6994,-0.6998,-0.6992,-0.7006,-0.7029,-0.7033,-0.7001,-0.7001,-0.7,0,-0.6731,-0.6768,-0.6794,-0.6805,-0.6836,-0.6848,-0.6862,-0.6883,-0.6898,-0.6919,-0.6929,-0.6952,-0.6965,-0.6984,-0.6999,-0.6993,-0.703,-0.7026,-0.7038,-0.7038,-0.7046,-0.7045,-0.7072,-0.7052,-0.7052,-0.7052,-0.7052,0,-0.6752,-0.6772,-0.6797,-0.6813,-0.6837,-0.6853,-0.6876,-0.689,-0.6909,-0.6928,-0.6938,-0.6956,-0.6974,-0.6994,-0.7006,-0.7032,-0.7037,-0.7045,-0.7048,-0.7045,-0.7044,-0.7054,-0.7053,-0.7053,-0.7053,-0.7053,-0.7053,0,-0.6762,-0.6779,-0.6808,-0.6835,-0.6843,-0.6859,-0.6883,-0.6899,-0.6912,-0.6936,-0.6943,-0.6964,-0.6989,-0.7005,-0.7036,-0.7044,-0.7072,-0.7074,-0.7065,-0.7067,-0.7079,-0.7078,-0.7113,-0.7119,-0.7095,-0.7095,-0.7095,0,-0.6774,-0.679,-0.682,-0.6833,-0.6847,-0.6869,-0.6884,-0.69,-0.6916,-0.6943,-0.6956,-0.6981,-0.7002,-0.704,-0.7059,-0.7083,-0.7086,-0.7097,-0.709,-0.7086,-0.7087,-0.7087,-0.7089,-0.7098,-0.7098,-0.7099,-0.7099,0,-0.6794,-0.6802,-0.6823,-0.6848,-0.6866,-0.6886,-0.6907,-0.6917,-0.6937,-0.6954,-0.6979,-0.6996,-0.7028,-0.7053,-0.7079,-0.7093,-0.71,-0.7101,-0.7105,-0.7102,-0.7096,-0.7101,-0.7069,-0.71,-0.71,-0.71,-0.71,-0.71,-0.6806,-0.6821,-0.6845,-0.6869,-0.6886,-0.6905,-0.6922,-0.6938,-0.696,-0.6987,-0.6996,-0.7022,-0.7045,-0.7081,-0.7095,-0.7116,-0.7115,-0.7121,-0.7123,-0.7125,-0.7125,-0.7093,-0.7121,-0.7121,-0.7121,-0.7121,-0.7121,0,-0.6827,-0.6843,-0.6865,-0.6894,-0.6913,-0.6917,-0.694,-0.6956,-0.698,-0.7,-0.7021,-0.7051,-0.7075,-0.7096,-0.7122,-0.7135,-0.7138,-0.7141,-0.714,-0.7144,-0.7124,-0.7118,-0.7137,-0.7137,-0.7137,-0.7137,-0.7137,-0.7137,-0.6841,-0.6867,-0.6878,-0.6914,-0.693,-0.6957,-0.6969,-0.6987,-0.7004,-0.7037,-0.7058,-0.7071,-0.7092,-0.712,-0.7143,-0.7148,-0.7157,-0.7159,-0.7165,-0.7147,-0.7145,-0.7143,-0.7138,-0.7161,-0.7161,-0.7184,-0.7184,-0.7184]},{"header":{"parameterUnit":"m.s-1","parameterCategory":1,"la1":30.2991,"la2":30.254,"lo1":-89.0895,"lo2":-89.0444,"dy":0.0017,"dx":0.0017,"nx":28,"ny":28,"refTime":"2023-09-23T21:00:00:Z","depth":0,"parameterNumber":3,"parameterNumberName":"V-component_of_WINDS"},"data":[0,0,0,0,0,0,0,0,0,0,0,0,0,0,0,0,0,0,0,0,0,0,0,0,0,0,0,0,0,0,0,0,0,0,0,0,0,0,0,0,0,0,0,0,0,0,0,0,0,0,0,0,0,0,0,0,0,0,3.4961,3.496,0,3.4915,3.4914,3.4914,3.4832,3.483,3.4829,3.4827,3.4781,3.4781,3.4781,0,0,0,0,0,0,0,0,0,0,0,0,0,3.4979,3.4979,3.4961,3.496,3.496,3.4915,3.4914,3.4914,3.4832,3.483,3.4828,3.4827,3.4781,3.4781,3.4781,0,0,0,0,0,0,0,0,0,0,0,0,0,3.4956,3.4979,3.4961,3.4914,3.4909,3.4915,3.4914,3.4913,3.4832,3.483,3.4828,3.4826,3.4781,3.4781,3.4781,3.483,0,0,3.4782,3.4782,0,0,0,0,0,0,0,0,3.4957,3.4955,3.4921,3.4917,3.4912,3.4877,3.4903,3.4885,3.4833,3.4862,3.4827,3.4824,3.4815,3.4812,3.4808,3.4828,3.4826,3.4782,3.4782,3.4782,3.4783,0,0,0,0,0,0,0,3.4959,3.4957,3.4943,3.4921,3.4915,3.4895,3.4889,3.49,3.4852,3.4859,3.4853,3.4848,3.4811,3.4808,3.4807,3.4825,3.4782,3.4782,3.4783,3.4783,3.4879,3.4882,0,0,0,0,0,0,3.4967,3.4959,3.4944,3.4941,3.4929,3.4896,3.489,3.489,3.4851,3.4843,3.4851,3.4845,3.4809,3.4806,3.4805,3.4857,3.4782,3.4783,3.4783,3.4877,3.488,3.4883,0,0,0,0,0,0,3.4968,3.4967,3.4946,3.4948,3.4944,3.4899,3.49,3.4891,3.4887,3.4845,3.4836,3.4856,3.4807,3.4804,3.4824,3.4854,3.4783,3.4783,3.4874,3.4878,3.4881,3.4963,0,0,0,0,0,0,3.4969,3.4968,3.4985,3.4949,3.4944,3.4966,3.4902,3.4891,3.4888,3.488,3.4848,3.484,3.4805,3.4824,3.4824,3.4853,3.4783,3.4871,3.4876,3.488,3.4958,3.4969,3.4979,0,0,0,0,0,3.497,3.5011,3.4987,3.4986,3.4966,3.4968,3.4965,3.4923,3.4891,3.4908,3.4881,3.4841,3.4852,3.4826,3.4826,3.4856,3.4869,3.4875,3.488,3.4953,3.4967,3.4979,0,0,0,0,0,0,3.5052,3.5005,3.4978,3.5009,3.4993,3.4954,3.4974,3.494,3.4933,3.4926,3.4875,3.4868,3.4894,3.4877,3.485,3.49,3.4854,3.486,3.4909,3.4923,3.4933,3.4936,3.4784,0,0,0,0,0,3.5074,3.508,3.5038,3.507,3.5063,3.5021,3.502,3.4989,3.4971,3.4964,3.4938,3.4921,3.492,3.4921,3.4918,3.4956,3.4946,3.4976,3.4987,3.4996,3.5001,3.5017,3.5029,3.49,3.49,3.49,0,0,3.5119,3.5094,3.5101,3.5086,3.5069,3.5076,3.5015,3.5025,3.5029,3.4965,3.4981,3.4962,3.494,3.4968,3.4979,3.4955,3.5034,3.5003,3.501,3.501,3.5024,3.5036,3.5047,3.4904,3.4903,3.4903,0,0,3.5204,3.5186,3.5209,3.5194,3.5171,3.5142,3.5148,3.5114,3.5099,3.5114,3.5065,3.507,3.507,3.5056,3.5049,3.5128,3.509,3.5129,3.5184,3.5201,3.5211,3.522,3.5245,3.5256,3.5134,3.5135,3.5135,0,3.5262,3.527,3.5226,3.5238,3.5232,3.5174,3.5196,3.5184,3.5162,3.5159,3.5132,3.513,3.5112,3.5134,3.5154,3.5151,3.5154,3.5131,3.5213,3.5221,3.5229,3.5253,3.5263,3.5139,3.5139,3.5138,3.5138,0,3.5342,3.5348,3.537,3.5348,3.5345,3.5362,3.532,3.5322,3.5292,3.5267,3.5282,3.5258,3.5248,3.5252,3.5224,3.5271,3.5256,3.5223,3.5174,3.5246,3.5268,3.5277,3.5146,3.5144,3.5143,3.5142,0,0,3.5476,3.5429,3.5438,3.5426,3.5396,3.54,3.5415,3.5405,3.5407,3.5393,3.5403,3.5405,3.5373,3.5365,3.5334,3.5349,3.541,3.5313,3.5312,3.533,3.5458,3.5482,3.5493,3.5386,3.5388,3.5389,3.5459,0,3.5552,3.5573,3.5534,3.5565,3.5569,3.5515,3.5527,3.551,3.5487,3.5486,3.5461,3.5461,3.5421,3.5415,3.5428,3.54,3.5435,3.5395,3.5394,3.5394,3.5398,3.5505,3.553,3.5597,3.5468,3.5469,3.547,0,3.5643,3.5633,3.5664,3.5631,3.5631,3.5643,3.563,3.5631,3.5611,3.5592,3.5584,3.5547,3.5558,3.5514,3.5528,3.5502,3.5499,3.5486,3.5487,3.5484,3.5435,3.5502,3.5618,3.5627,3.5484,3.5482,3.5481,0,3.5734,3.5729,3.5746,3.5739,3.5701,3.571,3.5695,3.5672,3.5668,3.5658,3.5654,3.5646,3.564,3.5634,3.5595,3.5567,3.5613,3.5567,3.5597,3.5598,3.5607,3.5607,3.5722,3.561,3.561,3.561,3.561,0,3.5821,3.5842,3.5786,3.5797,3.5818,3.5773,3.5795,3.5774,3.5754,3.5759,3.5713,3.5719,3.5669,3.5669,3.564,3.5654,3.5653,3.5638,3.5629,3.564,3.5642,3.5636,3.5629,3.5613,3.5612,3.5611,3.5611,0,3.5925,3.5889,3.5904,3.5868,3.5859,3.5876,3.5844,3.5852,3.5826,3.5833,3.5832,3.5791,3.5788,3.575,3.574,3.572,3.5746,3.573,3.5753,3.5746,3.5778,3.5775,3.5892,3.5904,3.5787,3.5788,3.5789,0,3.5982,3.5997,3.5961,3.5961,3.5948,3.5949,3.5945,3.5901,3.5899,3.5876,3.5886,3.588,3.5872,3.5871,3.584,3.5832,3.5813,3.5855,3.5812,3.5822,3.5811,3.5809,3.581,3.5864,3.5865,3.5866,3.5867,0,3.6086,3.6067,3.6063,3.6052,3.6048,3.6038,3.6025,3.6027,3.5979,3.5979,3.5976,3.597,3.5959,3.5953,3.5939,3.5923,3.5886,3.5882,3.5887,3.5898,3.5909,3.5901,3.5775,3.5878,3.5877,3.5876,3.5876,3.5875,3.6166,3.6176,3.6152,3.6149,3.6134,3.6123,3.6127,3.6102,3.6099,3.6086,3.6061,3.6061,3.6039,3.6016,3.6003,3.6002,3.5981,3.5991,3.5992,3.5995,3.6,3.5912,3.6,3.6,3.5999,3.5999,3.5999,0,3.6265,3.6248,3.6245,3.6227,3.6224,3.6192,3.6175,3.6174,3.6175,3.6158,3.6151,3.6147,3.6141,3.611,3.61,3.6105,3.6088,3.6103,3.6101,3.6098,3.6021,3.6015,3.6117,3.6117,3.6117,3.6117,3.6117,3.6117,3.6317,3.633,3.6309,3.6315,3.6297,3.6296,3.629,3.6278,3.6264,3.6261,3.6256,3.6235,3.6212,3.62,3.6192,3.6183,3.618,3.6201,3.6186,3.6115,3.6103,3.6092,3.6087,3.6202,3.6202,3.6262,3.6263,3.6263]}]]